Weather History for Waskish, MN

Change the Weather History Date:

Tuesday, August 6, 2013

  Actual Average (KBDE) Record (KBDE)
Temperature  
Mean Temperature 58 °F -  
Max Temperature 66 °F 81 °F 95 °F (1937)
Min Temperature 48 °F 54 °F 42 °F (1972)
Degree Days  
Heating Degree Days 7    
Growing Degree Days 8 (Base 50)    
Moisture  
Dew Point 57 °F    
Average Humidity 91    
Maximum Humidity 100    
Minimum Humidity 77    
Precipitation  
Precipitation 0.10 in - - ()
Sea Level Pressure  
Sea Level Pressure 29.78 in    
Wind  
Wind Speed 3 mph (West)    
Max Wind Speed 10 mph    
Max Gust Speed -    
Visibility 9 miles    
Events Fog , Rain    
Averages and records for this station are not official NWS values.
T = Trace of Precipitation, MM = Missing Value Source: NWS Daily Summary

Daily Weather History Graph

Daily Weather History Graph

Search for Another Location

Airport:

Trip Planner

Search our weather history database for the weather conditions in past years. The results will help you decide how hot, cold, wet, or windy it might be!

Date:

Astronomy

Aug. 06, 2013 Rise Set
Actual Time 6:00 AM CDT 8:46 PM CDT
Civil Twilight 5:24 AM CDT 9:21 PM CDT
Nautical Twilight 4:39 AM CDT 10:07 PM CDT
Astronomical Twilight 3:45 AM CDT 11:00 PM CDT
Moon 5:57 AM CDT (8/6) 8:14 PM CDT (8/6)
Length of Visible Light 15h 56m
Length of Day
14h 45m
Waning Crescent, 0% of the Moon is Illuminated
Aug 6
Waning Crescent
Aug 6
New
Aug 14
First Quarter
Aug 20
Full
Aug 28
Last Quarter

Hourly Weather History & Observations

Time (CDT) Temp. Dew Point Humidity Pressure Visibility Wind Dir Wind Speed Gust Speed Precip Events Conditions
12:08 AM 64.4 °F 59.0 °F 83% 29.81 in 10.0 mi WSW 10.4 mph - N/A   Clear
12:28 AM 64.4 °F 59.0 °F 83% 29.80 in 10.0 mi SW 9.2 mph - N/A   Clear
12:48 AM 62.6 °F 55.4 °F 77% 29.79 in 10.0 mi SSE 4.6 mph - N/A   Clear
1:08 AM 59.0 °F 55.4 °F 88% 29.79 in 10.0 mi Calm Calm - N/A   Clear
1:28 AM 57.2 °F 55.4 °F 94% 29.78 in 10.0 mi Calm Calm - N/A   Clear
1:44 AM 55.4 °F 53.6 °F 94% 29.77 in 10.0 mi SSE 3.5 mph - N/A   Clear
2:08 AM 55.4 °F 55.4 °F 100% 29.78 in 10.0 mi South 4.6 mph - N/A   Clear
2:28 AM - - N/A% - 10.0 mi SSW 5.8 mph - N/A   Clear
2:48 AM 59.0 °F 57.2 °F 94% 29.78 in 10.0 mi Calm Calm - N/A   Clear
3:08 AM 55.4 °F 55.4 °F 100% 29.77 in 10.0 mi South 3.5 mph - N/A   Clear
3:28 AM 55.4 °F 53.6 °F 94% 29.77 in 10.0 mi Calm Calm - N/A   Scattered Clouds
3:48 AM 55.4 °F 53.6 °F 94% 29.76 in 10.0 mi SE 3.5 mph - N/A   Clear
4:08 AM 55.4 °F 53.6 °F 94% 29.76 in 10.0 mi Calm Calm - N/A   Clear
4:28 AM 55.4 °F 53.6 °F 94% 29.75 in 10.0 mi Calm Calm - N/A   Scattered Clouds
4:48 AM 55.4 °F 53.6 °F 94% 29.74 in 10.0 mi Calm Calm - N/A   Mostly Cloudy
5:08 AM 53.6 °F 53.6 °F 100% 29.74 in 10.0 mi Calm Calm - N/A   Mostly Cloudy
5:28 AM 53.6 °F 53.6 °F 100% 29.74 in 10.0 mi Calm Calm - N/A   Mostly Cloudy
5:48 AM 55.4 °F 53.6 °F 94% 29.75 in 10.0 mi Calm Calm - N/A   Mostly Cloudy
6:08 AM 55.4 °F 53.6 °F 94% 29.75 in 10.0 mi Calm Calm - N/A   Scattered Clouds
6:28 AM 55.4 °F 53.6 °F 94% 29.75 in 10.0 mi Calm Calm - N/A   Mostly Cloudy
6:48 AM 55.4 °F 53.6 °F 94% 29.75 in 10.0 mi Calm Calm - N/A   Overcast
7:08 AM 55.4 °F 53.6 °F 94% 29.75 in 10.0 mi Calm Calm - N/A   Overcast
7:28 AM 55.4 °F 55.4 °F 100% 29.77 in 10.0 mi Calm Calm - N/A   Overcast
7:48 AM 57.2 °F 55.4 °F 94% 29.78 in 10.0 mi Calm Calm - N/A   Overcast
8:08 AM 59.0 °F 57.2 °F 94% 29.77 in 10.0 mi WNW 5.8 mph - N/A   Mostly Cloudy
8:28 AM 60.8 °F 57.2 °F 88% 29.77 in 10.0 mi WNW 8.1 mph - N/A   Light Drizzle
8:48 AM 60.8 °F 57.2 °F 88% 29.77 in 10.0 mi WNW 5.8 mph - N/A   Overcast
9:08 AM 62.6 °F 57.2 °F 82% 29.77 in 10.0 mi WNW 6.9 mph - N/A   Overcast
9:28 AM 62.6 °F 57.2 °F 82% 29.77 in 10.0 mi West 5.8 mph - N/A   Mostly Cloudy
9:48 AM 62.6 °F 57.2 °F 82% 29.76 in 10.0 mi WNW 3.5 mph - N/A   Mostly Cloudy
10:08 AM 62.6 °F 57.2 °F 82% 29.77 in 10.0 mi West 3.5 mph - N/A   Overcast
10:28 AM 62.6 °F 57.2 °F 82% 29.77 in 10.0 mi Calm Calm - N/A Rain Light Rain
10:49 AM 62.6 °F 57.2 °F 82% 29.77 in 10.0 mi Calm Calm - N/A   Overcast
11:08 AM 62.6 °F 57.2 °F 82% 29.76 in 10.0 mi Calm Calm - N/A Rain Light Rain
11:28 AM 62.6 °F 57.2 °F 82% 29.77 in 7.0 mi Calm Calm - N/A Rain Light Rain
11:48 AM 62.6 °F 57.2 °F 82% 29.77 in 10.0 mi Calm Calm - N/A Rain Light Rain
12:08 PM 62.6 °F 59.0 °F 88% 29.78 in 10.0 mi Calm Calm - N/A Rain Light Rain
12:28 PM 62.6 °F 59.0 °F 88% 29.77 in 10.0 mi Calm Calm - N/A Rain Light Rain
12:48 PM 64.4 °F 60.8 °F 88% 29.77 in 10.0 mi Calm Calm - N/A Rain Light Rain
1:08 PM 64.4 °F 60.8 °F 88% 29.76 in 10.0 mi Calm Calm - N/A   Mostly Cloudy
1:28 PM 64.4 °F 59.0 °F 83% 29.76 in 10.0 mi SW 4.6 mph - N/A   Overcast
1:48 PM 66.2 °F 60.8 °F 83% 29.76 in 10.0 mi South 4.6 mph - N/A   Mostly Cloudy
2:08 PM 64.4 °F 57.2 °F 77% 29.76 in 10.0 mi Calm Calm - N/A   Overcast
2:28 PM 62.6 °F 57.2 °F 82% 29.76 in 5.0 mi Calm Calm - N/A Rain Rain
2:48 PM 62.6 °F 59.0 °F 88% 29.77 in 7.0 mi Calm Calm - 0.03 in Rain Rain
3:08 PM 62.6 °F 59.0 °F 88% 29.77 in 10.0 mi Calm Calm - N/A   Overcast
3:28 PM 62.6 °F 59.0 °F 88% 29.77 in 10.0 mi SSW 4.6 mph - N/A   Overcast
3:48 PM 60.8 °F 57.2 °F 88% 29.77 in 10.0 mi Calm Calm - N/A Rain Light Rain
4:08 PM 60.8 °F 57.2 °F 88% 29.77 in 7.0 mi Calm Calm - 0.02 in Rain Rain
4:28 PM 62.6 °F 60.8 °F 94% 29.76 in 10.0 mi Calm Calm - 0.03 in Rain Light Rain
4:48 PM 62.6 °F 60.8 °F 94% 29.77 in 10.0 mi WSW 3.5 mph - 0.03 in   Mostly Cloudy
5:08 PM 62.6 °F 60.8 °F 94% 29.77 in 10.0 mi SW 3.5 mph - N/A   Overcast
5:28 PM 62.6 °F 60.8 °F 94% 29.78 in 10.0 mi WSW 3.5 mph - N/A   Overcast
5:48 PM 62.6 °F 60.8 °F 94% 29.78 in 10.0 mi WSW 3.5 mph - N/A   Overcast
6:08 PM 62.6 °F 59.0 °F 88% 29.79 in 7.0 mi WNW 4.6 mph - 0.02 in Rain Heavy Rain
6:28 PM 60.8 °F 57.2 °F 88% 29.80 in 10.0 mi North 4.6 mph - 0.03 in Rain Rain
6:48 PM 60.8 °F 59.0 °F 94% 29.80 in 10.0 mi NNE 4.6 mph - 0.03 in Rain Light Rain
7:08 PM 60.8 °F 59.0 °F 94% 29.80 in 10.0 mi North 3.5 mph - N/A Rain Light Rain
7:28 PM 60.8 °F 59.0 °F 94% 29.80 in 10.0 mi NNE 4.6 mph - 0.01 in Rain Light Rain
7:48 PM 60.8 °F 59.0 °F 94% 29.81 in 10.0 mi North 9.2 mph - 0.01 in   Mostly Cloudy
8:08 PM 60.8 °F 57.2 °F 88% 29.81 in 10.0 mi North 4.6 mph - N/A   Mostly Cloudy
8:28 PM 59.0 °F 57.2 °F 94% 29.82 in 10.0 mi North 4.6 mph - N/A   Scattered Clouds
8:48 PM 59.0 °F 57.2 °F 94% 29.82 in 10.0 mi Calm Calm - N/A   Scattered Clouds
9:08 PM 57.2 °F 55.4 °F 94% 29.83 in 10.0 mi Calm Calm - N/A   Scattered Clouds
9:28 PM 57.2 °F 55.4 °F 94% 29.84 in 10.0 mi North 3.5 mph - N/A   Clear
9:48 PM 57.2 °F 55.4 °F 94% 29.85 in 10.0 mi North 3.5 mph - N/A   Clear
10:08 PM 55.4 °F 55.4 °F 100% 29.85 in 10.0 mi Calm Calm - N/A   Clear
10:29 PM 55.4 °F 53.6 °F 94% 29.85 in 10.0 mi Calm Calm - N/A   Clear
10:48 PM 53.6 °F 53.6 °F 100% 29.86 in 7.0 mi Calm Calm - N/A   Clear
11:08 PM 51.8 °F 51.8 °F 100% 29.85 in 0.5 mi Calm Calm - N/A Fog Fog
11:29 PM 50.0 °F 48.2 °F 94% 29.86 in 0.5 mi Calm Calm - N/A Fog Fog
11:48 PM 48.2 °F 48.2 °F 100% 29.87 in 1.2 mi Calm Calm - N/A   Clear